Location: Newark
(51.2625°N, 13.3939°E)
Time: 00:08:50
(UTC+00:00)

Explorer 7 - Pass Details

Date: 15 November 2019
Orbit: 485 x 680 km, 50.3° (Epoch: 12 December)

Event Time Altitude Azimuth Distance (km) Brightness Sun altitude
Rises 00:26:35 0° 210° (SSW) 2,894 - -52.1°
Reaches altitude 10° 00:29:19 10° 196° (SSW) 1,954 - -51.8°
Maximum altitude 00:32:48 22° 145° (SE) 1,283 - -51.4°
Drops below altitude 10° 00:36:08 10° 93° (E) 1,863 - -51.1°
Sets 00:38:40 0° 78° (ENE) 2,724 - -50.8°
